This is the latest recevied weather packets stored in our database for station/object KB3VSP. If no packets are shown the sender has not sent any weather packets the latest 10 day(s).
| Time | Temp. | Humidity | Pressure | Rain* | Wind** | Luminosity | Snow |
|---|---|---|---|---|---|---|---|
| 1777983109 | 17.78° C | 70% | 1008.9 hPa | 0 mm | - | 64 W/m² | - |
| 1777982806 | 17.22° C | 70% | 1008.8 hPa | 0 mm | - | 31 W/m² | - |
| 1777982501 | 17.22° C | 70% | 1008.7 hPa | 0 mm | - | 23 W/m² | - |
| 1777982196 | 17.22° C | 71% | 1008.9 hPa | 0 mm | - | 15 W/m² | - |
| 1777981894 | 17.22° C | 71% | 1008.6 hPa | 0 mm | - | 14 W/m² | - |
| 1777981591 | 17.22° C | 71% | 1008.7 hPa | 0 mm | - | 19 W/m² | - |
| 1777981287 | 17.22° C | 71% | 1008.7 hPa | 0 mm | - | 35 W/m² | - |
| 1777980983 | 17.22° C | 72% | 1008.6 hPa | 0 mm | - | 37 W/m² | - |
| 1777980680 | 17.22° C | 72% | 1008.7 hPa | 0 mm | - | 39 W/m² | - |
| 1777980376 | 16.67° C | 73% | 1008.6 hPa | 0 mm | - | 31 W/m² | - |
| 1777980074 | 16.67° C | 73% | 1008.5 hPa | 0 mm | - | 25 W/m² | - |
| 1777979768 | 16.67° C | 74% | 1008.5 hPa | 0 mm | - | 21 W/m² | - |
| 1777979464 | 16.67° C | 74% | 1008.7 hPa | 0 mm | - | 19 W/m² | - |
| 1777979161 | 16.67° C | 74% | 1008.5 hPa | 0 mm | - | 17 W/m² | - |
| 1777978858 | 16.67° C | 74% | 1008.7 hPa | 0 mm | - | 15 W/m² | - |
| 1777978554 | 16.67° C | 75% | 1008.3 hPa | 0 mm | - | 11 W/m² | - |
| 1777978250 | 16.11° C | 75% | 1008.3 hPa | 0 mm | - | 8 W/m² | - |
| 1777977947 | 16.67° C | 75% | 1008.2 hPa | 0 mm | - | 5 W/m² | - |
| 1777977645 | 16.67° C | 74% | 1008.1 hPa | 0 mm | - | 3 W/m² | - |
| 1777977341 | 16.67° C | 74% | 1008.2 hPa | 0 mm | - | 2 W/m² | - |
| 1777977039 | 16.67° C | 74% | 1008.1 hPa | 0 mm | - | 1 W/m² | - |
| 1777976736 | 16.67° C | 74% | 1008.1 hPa | 0 mm | - | 0 W/m² | - |
| 1777976433 | 16.67° C | 74% | 1008.1 hPa | 0 mm | - | 0 W/m² | - |
| 1777976132 | 16.67° C | 73% | 1008 hPa | 0 mm | - | 0 W/m² | - |
| 1777975828 | 17.22° C | 72% | 1008 hPa | 0 mm | - | 0 W/m² | - |
* Rain latest hour (hover to see other rain measurements)
** Current wind speed in m/s (hover to see current wind gust speed)